Regional Weather Roundup
Issued by NWS

Home | Current Version | Previous Version | Graphics & Text | Print | Product List | Glossary On
Versions: 1 2 3 4 5 6 7 8 9 10 11 12 13 14 15 16 17 18 19 20 21 22 23 24 25 26 27 28 29 30 31 32 33 34 35 36 37 38 39 40 41 42 43 44 45 46 47 48 49 50
000
ASUS45 KCYS 041510
RWRWY

WYOMING REGIONAL WEATHER ROUNDUP
NATIONAL WEATHER SERVICE CHEYENNE WY
800 AM MST SUN DEC 04 2016

NOTE:  "FAIR" INDICATES FEW OR NO CLOUDS BELOW 12,000 FEET
WITH NO SIGNIFICANT WEATHER AND/OR OBSTRUCTIONS TO VISIBILITY.

WYZ001-041600-
YELLOWSTONE NATIONAL PARK

CITY           SKY/WX    TMP DP  RH WIND       PRES   REMARKS
LK YELLOWSTONE   N/A     20  16  84 VRB3      29.88F
W YELLOWSTONE  NOT AVBL

$$
WYZ002>013-054>058-071-098>099-041600-
NORTHERN WYOMING

CITY           SKY/WX    TMP DP  RH WIND       PRES   REMARKS
JACKSON        CLOUDY    27  25  93 S13G20    29.95F WCI  16
CODY           FAIR      32  22  66 SW7       29.82F WCI  26
GREYBULL       CLOUDY    26  17  68 S3        29.87F
WORLAND        FAIR      22  15  75 CALM      29.86F
SHERIDAN       CLOUDY    31  15  52 SE5       29.83F WCI  26
BUFFALO        CLOUDY    31  13  47 N7        29.83S WCI  24
GILLETTE       FAIR      26  12  55 SW16      29.84F WCI  14
HULETT         FAIR      27  19  74 SW7       29.86F WCI  19
NEWCASTLE      FAIR      19  18  93 SE8       29.91F WCI   9

$$
WYZ014>020-022>026-101>103-041600-
CENTRAL WYOMING

CITY           SKY/WX    TMP DP  RH WIND       PRES   REMARKS
BIG PINEY      FAIR      11   8  88 E7        30.01F WCI   0
PINEDALE       LGT SNOW  16  14  93 CALM      30.03S
DUBOIS         CLOUDY    25  19  80 N16G26    29.85F WCI  12
LANDER         FAIR      20   8  60 W9        29.88S WCI   9
RIVERTON       FAIR      21   9  59 SW9       29.89F WCI  11
CASPER         FAIR      27  16  63 SW17G26   29.91F WCI  14
DOUGLAS        FAIR      20  11  68 CALM      29.90F

$$
WYZ021-027>030-104>119-041600-
SOUTHERN WYOMING

CITY           SKY/WX    TMP DP  RH WIND       PRES   REMARKS
EVANSTON       FAIR      20  10  65 SW17      30.07F WCI   5
FORT BRIDGER   FAIR      24  13  63 W13G18    30.09F WCI  12
ROCK SPRINGS   FAIR      24  14  65 SW21G30   30.06F WCI   9
DIXON          FAIR       9   5  86 CALM      30.16S
RAWLINS        FAIR      21  11  65 SW17G31   29.98S WCI   7
SARATOGA       CLOUDY    21  12  68 S7        30.03F WCI  13
LARAMIE        FAIR      22   7  52 SW18      29.95R WCI   7
CHEYENNE       FAIR      28   7  41 SW13      29.97R WCI  17
TORRINGTON     FAIR      30  15  53 W8        29.96F WCI  22
PINE BLUFFS    FAIR      16  10  79 W7        30.01R WCI   6

$$



USA.gov is the U.S. government's official web portal to all federal, state and local government web resources and services.